Location: San Vito
(41.8833°N, 12.9833°E)
Time: 13:54:31
(UTC+00:00)

SMAP - Pass Details

Date: 17 November 2019
Orbit: 682 x 683 km, 98.1° (Epoch: 08 December)

Event Time Altitude Azimuth Distance (km) Brightness Sun altitude
Rises 05:05:51 0° 18° (NNE) 3,053 6.4 -10.2°
Reaches altitude 10° 05:08:10 10° 24° (NNE) 2,133 5.7 -9.8°
Maximum altitude 05:12:42 50° 100° (E) 865 4.1 -9.0°
Drops below altitude 10° 05:17:12 10° 176° (S) 2,117 5.9 -8.2°
Sets 05:19:29 0° 181° (S) 3,027 6.6 -7.8°
